FW7370 Weather Reports


time (UTC)temp
F
wind
direction
speed
knots
gust
knots
rain 1hr
in
rain 24hr
in
rain mn
in
humidity
%
barometer
mb
20240715213612 84 15 6.1 10.4 0.00 0.00 0.00 79 1024.1
20240715213111 84 83 4.3 11.3 0.00 0.00 0.00 78 1024.1
20240715212611 84 72 5.2 13.0 0.00 0.00 0.00 78 1023.9
20240715212110 84 21 6.1 13.0 0.00 0.00 0.00 78 1024.0
20240715211054 84 19 7.0 14.8 0.00 0.00 0.00 78 1024.0
20240715210554 84 17 8.7 11.3 0.00 0.00 0.00 78 1023.8
20240715210053 84 31 6.1 13.9 0.00 0.00 0.00 78 1023.6
20240715205554 84 7 7.8 13.9 0.00 0.00 0.00 78 1023.7
20240715205053 84 14 7.0 13.9 0.00 0.00 0.00 79 1023.8
20240715204553 84 27 5.2 12.2 0.00 0.00 0.00 78 1024.1
20240715204053 84 17 6.1 13.0 0.00 0.00 0.00 78 1023.6
20240715203554 84 17 6.1 13.0 0.00 0.00 0.00 77 1024.0
20240715203053 84 14 7.8 12.2 0.00 0.00 0.00 77 1023.6
20240715201524 84 7 6.1 12.2 0.00 0.00 0.00 78 1023.7
20240715200508 84 34 4.3 13.0 0.00 0.00 0.00 77 1023.6
20240715200008 84 16 8.7 13.0 0.00 0.00 0.00 75 1023.8
20240715195507 85 11 7.0 13.0 0.00 0.00 0.00 75 1023.6
20240715195007 84 12 6.1 10.4 0.00 0.00 0.00 75 1023.8
20240715193952 84 32 5.2 13.0 0.00 0.00 0.00 76 1023.9
20240715193451 84 34 3.5 12.2 0.00 0.00 0.00 77 1024.2
20240715192951 84 6 6.1 12.2 0.00 0.00 0.00 78 1023.8
20240715192451 84 11 7.8 12.2 0.00 0.00 0.00 78 1023.6
20240715191950 84 10 7.0 13.0 0.00 0.00 0.00 77 1023.8
20240715190933 84 12 7.0 13.9 0.00 0.00 0.00 79 1023.6
20240715190432 84 10 8.7 13.9 0.00 0.00 0.00 77 1023.6
20240715185932 84 29 6.1 13.0 0.00 0.00 0.00 78 1023.7
20240715185432 84 15 6.1 13.0 0.00 0.00 0.00 78 1024.0
20240715184930 84 13 7.0 13.0 0.00 0.00 0.00 77 1023.9
20240715183915 84 25 7.0 12.2 0.00 0.00 0.00 77 1023.8
20240715182900 84 33 4.3 13.0 0.00 0.00 0.00 77 1024.4
20240715182359 84 10 6.1 13.0 0.00 0.00 0.00 77 1024.3
20240715181858 84 11 6.1 13.0 0.00 0.00 0.00 76 1024.5
20240715181358 84 26 5.2 13.9 0.00 0.00 0.00 76 1024.1
20240715180857 84 19 5.2 13.9 0.00 0.00 0.00 76 1024.3
20240715180357 85 21 6.1 11.3 0.00 0.00 0.00 75 1024.5
20240715175856 85 50 4.3 12.2 0.00 0.00 0.00 77 1024.5
20240715175356 85 69 5.2 12.2 0.00 0.00 0.00 76 1024.6
20240715174855 85 49 4.3 12.2 0.00 0.00 0.00 76 1024.8
20240715173324 85 90 3.5 10.4 0.00 0.00 0.00 75 1024.8
20240715172823 85 97 6.1 10.4 0.00 0.00 0.00 75 1024.9
20240715172323 86 91 4.3 10.4 0.00 0.00 0.00 75 1024.8
20240715171822 86 107 6.1 11.3 0.00 0.00 0.00 74 1025.0
20240715171322 86 63 4.3 11.3 0.00 0.00 0.00 73 1024.8
20240715170821 86 65 4.3 10.4 0.00 0.00 0.00 74 1025.2
20240715165805 86 68 4.3 10.4 0.00 0.00 0.00 74 1024.9
20240715164749 86 58 3.5 10.4 0.00 0.00 0.00 74 1025.1
20240715163733 87 79 4.3 10.4 0.00 0.00 0.00 72 1025.2
20240715163232 86 94 3.5 10.4 0.00 0.00 0.00 72 1025.2
20240715162732 85 105 5.2 10.4 0.00 0.00 0.00 73 1025.1
20240715162231 85 76 3.5 10.4 0.00 0.00 0.00 75 1024.9
20240715161215 85 115 7.8 11.3 0.00 0.00 0.00 73 1025.1
20240715160715 85 120 6.1 11.3 0.00 0.00 0.00 75 1025.1
20240715160214 85 87 4.3 11.3 0.00 0.00 0.00 76 1025.2
20240715155714 86 97 6.1 10.4 0.00 0.00 0.00 75 1025.6
20240715155213 86 86 6.1 10.4 0.00 0.00 0.00 74 1025.5
20240715154713 85 109 4.3 13.9 0.00 0.00 0.00 75 1025.6
20240715154212 85 108 8.7 13.9 0.00 0.00 0.00 75 1025.3
20240715153712 85 121 7.0 13.0 0.00 0.00 0.00 75 1025.0
20240715153211 85 111 6.1 12.2 0.00 0.00 0.00 76 1025.3
20240715152711 85 120 7.0 12.2 0.00 0.00 0.00 76 1025.2
20240715152211 86 112 5.2 13.0 0.00 0.00 0.00 74 1025.5
20240715151711 85 106 6.1 13.0 0.00 0.00 0.00 74 1025.4
20240715151210 86 104 6.1 13.0 0.00 0.00 0.00 74 1025.5
20240715150710 86 125 7.0 12.2 0.00 0.00 0.00 73 1025.5
20240715150209 87 128 7.8 12.2 0.00 0.00 0.00 72 1025.4
20240715144638 86 102 7.0 12.2 0.00 0.00 0.00 74 1025.5
20240715144137 86 121 7.0 12.2 0.00 0.00 0.00 72 1025.5
20240715143637 86 96 6.1 13.9 0.00 0.00 0.00 74 1025.6
20240715143136 86 126 8.7 13.9 0.00 0.00 0.00 73 1025.1
20240715142636 86 128 8.7 12.2 0.00 0.00 0.00 73 1025.5
20240715142135 86 85 4.3 12.2 0.00 0.00 0.00 72 1025.4
20240715141635 87 122 6.1 11.3 0.00 0.00 0.00 72 1025.5
20240715135548 86 132 6.1 12.2 0.00 0.00 0.00 71 1025.5
20240715135047 86 109 6.1 11.3 0.00 0.00 0.00 74 1025.6
20240715134547 86 132 4.3 11.3 0.00 0.00 0.00 73 1025.5
20240715134047 85 117 5.2 11.3 0.00 0.00 0.00 73 1025.6
20240715133546 85 109 4.3 11.3 0.00 0.00 0.00 75 1025.4
20240715132014 85 126 5.2 12.2 0.00 0.00 0.00 76 1025.5
20240715131514 85 126 7.8 12.2 0.00 0.00 0.00 76 1025.3
20240715131013 84 119 7.8 11.3 0.00 0.00 0.00 77 1025.7
20240715130513 83 120 5.2 11.3 0.00 0.00 0.00 78 1025.4
20240715130012 84 138 5.2 11.3 0.00 0.00 0.00 78 1025.5
20240715125512 84 114 7.0 11.3 0.00 0.00 0.00 78 1025.5
20240715125011 84 104 5.2 10.4 0.00 0.00 0.00 78 1025.5
20240715124511 84 105 5.2 11.3 0.00 0.00 0.00 79 1025.5
20240715124011 83 118 7.0 11.3 0.00 0.00 0.00 78 1025.5
20240715123511 84 110 4.3 12.2 0.00 0.00 0.00 78 1025.4
20240715122455 84 65 5.2 11.3 0.00 0.00 0.00 78 1025.4
20240715120924 82 129 5.2 9.6 0.00 0.00 0.00 81 1025.4
20240715114837 83 58 1.7 9.6 0.00 0.00 0.00 80 1025.1
20240715114336 83 63 2.6 9.6 0.00 0.00 0.00 79 1025.1
20240715113836 83 119 3.5 9.6 0.00 0.00 0.00 79 1025.0
20240715112820 83 78 3.5 9.6 0.00 0.00 0.00 78 1025.1
20240715112320 83 22 4.3 9.6 0.00 0.00 0.00 79 1024.9
20240715110748 83 77 4.3 9.6 0.00 0.00 0.00 80 1024.9
20240715105732 82 74 4.3 9.6 0.00 0.00 0.00 81 1024.8
20240715105232 82 26 4.3 9.6 0.00 0.00 0.00 81 1024.7
20240715104732 82 30 3.5 9.6 0.00 0.00 0.00 81 1024.7
20240715104231 82 48 3.5 9.6 0.00 0.00 0.00 82 1024.7
20240715103731 82 69 2.6 9.6 0.00 0.00 0.00 82 1024.7
20240715103230 81 80 2.6 9.6 0.00 0.00 0.00 82 1024.4
20240715102730 81 83 3.5 9.6 0.00 0.00 0.00 82 1024.4
20240715102230 81 55 2.6 9.6 0.00 0.00 0.00 83 1024.7
20240715101214 81 71 1.7 9.6 0.00 0.00 0.00 83 1024.2
20240715100713 80 50 2.6 9.6 0.00 0.00 0.00 83 1024.2
20240715100213 80 94 2.6 9.6 0.00 0.00 0.00 83 1024.2
20240715095157 80 88 2.6 9.6 0.00 0.00 0.00 84 1024.2
20240715094656 80 70 2.6 9.6 0.00 0.00 0.00 84 1023.9
20240715094156 80 69 3.5 9.6 0.00 0.00 0.00 84 1024.1
20240715093655 80 74 2.6 9.6 0.00 0.00 0.00 84 1024.3
20240715092639 80 75 3.5 9.6 0.00 0.00 0.00 85 1024.0
20240715092139 80 54 3.5 9.6 0.00 0.00 0.00 84 1023.9
20240715091123 80 75 4.3 9.6 0.00 0.00 0.00 84 1023.5
20240715090622 80 70 1.7 9.6 0.00 0.00 0.00 84 1023.5
20240715090123 80 72 2.6 9.6 0.00 0.00 0.00 84 1023.5
20240715085621 80 45 4.3 9.6 0.00 0.00 0.00 84 1023.6
20240715085120 80 73 2.6 9.6 0.00 0.00 0.00 84 1023.6
20240715084620 80 71 4.3 9.6 0.00 0.00 0.00 85 1023.7
20240715084119 80 79 2.6 9.6 0.00 0.00 0.00 85 1023.3
20240715083619 80 53 4.3 9.6 0.00 0.00 0.00 85 1023.5
20240715083118 80 52 3.5 9.6 0.00 0.00 0.00 85 1023.6
20240715082618 80 86 2.6 9.6 0.00 0.00 0.00 84 1023.3
20240715082117 80 80 2.6 9.6 0.00 0.00 0.00 84 1023.4
20240715081617 80 69 3.5 9.6 0.00 0.00 0.00 84 1023.3
20240715081116 80 58 3.5 9.6 0.00 0.00 0.00 84 1023.3
20240715080100 80 39 3.5 9.6 0.00 0.00 0.00 84 1023.4
20240715075044 80 57 1.7 9.6 0.00 0.00 0.00 84 1023.3
20240715074543 80 74 4.3 9.6 0.00 0.00 0.00 84 1023.5
20240715074043 80 61 2.6 9.6 0.00 0.00 0.00 84 1023.4
20240715073542 80 67 2.6 9.6 0.00 0.00 0.00 84 1023.3
20240715073042 80 73 3.5 9.6 0.00 0.00 0.00 84 1023.3
20240715072542 80 56 2.6 9.6 0.00 0.00 0.00 84 1023.6
20240715072041 80 70 4.3 9.6 0.00 0.00 0.00 84 1023.6
20240715071025 80 56 3.5 9.6 0.00 0.00 0.00 83 1023.4
20240715065454 80 36 4.3 9.6 0.00 0.00 0.00 83 1023.4
20240715064954 80 64 3.5 9.6 0.00 0.00 0.00 83 1023.4
20240715064451 81 89 2.6 9.6 0.00 0.00 0.00 83 1023.9
20240715063950 81 55 4.3 10.4 0.00 0.00 0.00 83 1023.6
20240715063449 81 62 2.6 10.4 0.00 0.00 0.00 83 1023.5
20240715062949 81 50 5.2 10.4 0.00 0.00 0.00 83 1023.6
20240715062448 81 44 4.3 10.4 0.00 0.00 0.00 83 1023.4
20240715061432 81 54 5.2 10.4 0.00 0.00 0.00 82 1023.6
20240715060933 81 57 3.5 12.2 0.00 0.00 0.00 82 1023.6
20240715060431 81 49 3.5 12.2 0.00 0.00 0.00 82 1023.6
20240715055932 81 33 6.1 12.2 0.00 0.00 0.00 82 1023.7
20240715055431 81 47 4.3 12.2 0.00 0.00 0.00 82 1023.9
20240715054931 81 40 4.3 12.2 0.00 0.00 0.00 82 1024.0
20240715054430 81 58 3.5 12.2 0.00 0.00 0.00 82 1023.7
20240715053930 81 62 3.5 12.2 0.00 0.00 0.00 82 1023.8
20240715053429 81 44 4.3 12.2 0.00 0.00 0.00 82 1023.8
20240715052928 81 74 3.5 12.2 0.00 0.00 0.00 81 1024.0
20240715051913 81 53 4.3 12.2 0.00 0.00 0.00 82 1024.2
20240715050342 81 51 5.2 12.2 0.00 0.00 0.00 82 1024.2
20240715045841 81 55 5.2 12.2 0.00 0.00 0.00 82 1024.4
20240715045340 81 70 6.1 12.2 0.00 0.00 0.00 82 1024.8
20240715044840 81 74 4.3 12.2 0.00 0.00 0.00 82 1024.5
20240715043308 81 67 4.3 12.2 0.00 0.00 0.00 83 1024.7
20240715042808 82 65 6.1 13.9 0.00 0.00 0.00 83 1024.6
20240715042306 82 44 5.2 13.9 0.00 0.00 0.00 82 1024.9
20240715041807 82 59 5.2 11.3 0.00 0.00 0.00 83 1024.8
20240715041306 82 63 7.0 11.3 0.00 0.00 0.00 83 1024.9
20240715040806 82 72 3.5 12.2 0.00 0.00 0.00 83 1025.1
20240715040305 82 62 4.3 12.2 0.00 0.00 0.00 82 1025.1
20240715035805 82 46 5.2 12.2 0.00 0.00 0.00 82 1025.3
20240715035307 82 81 3.5 11.3 0.00 0.00 0.00 81 1025.2
20240715034804 82 43 5.2 11.3 0.00 0.00 0.00 80 1025.2
20240715034303 82 75 5.2 9.6 0.00 0.00 0.00 82 1025.0
20240715033247 82 40 4.3 9.6 0.00 0.00 0.00 82 1025.7
20240715032231 82 73 3.5 10.4 0.00 0.00 0.00 82 1025.6
20240715031215 82 41 4.3 10.4 0.00 0.00 0.00 82 1025.5
20240715030715 82 72 4.3 10.4 0.00 0.00 0.00 82 1025.8
20240715025659 82 64 3.5 10.4 0.00 0.00 0.00 82 1025.7
20240715025158 82 73 3.5 10.4 0.00 0.00 0.00 83 1025.8
20240715024658 82 45 3.5 10.4 0.00 0.00 0.00 83 1025.7
20240715024157 82 68 3.5 10.4 0.00 0.00 0.00 82 1025.6
20240715023657 82 64 3.5 10.4 0.00 0.00 0.00 82 1025.5
20240715023156 82 61 4.3 10.4 0.00 0.00 0.00 81 1025.4
20240715021624 82 50 5.2 10.4 0.00 0.00 0.00 83 1025.4
20240715021124 82 52 3.5 10.4 0.00 0.00 0.00 83 1025.6
20240715020108 82 48 5.2 10.4 0.00 0.00 0.00 84 1025.5
20240715015052 82 44 4.3 10.4 0.00 0.00 0.00 83 1025.5
20240715014551 82 55 4.3 10.4 0.00 0.00 0.00 83 1025.7
20240715013535 82 61 3.5 10.4 0.00 0.00 0.00 82 1025.4
20240715012004 82 55 4.3 10.4 0.00 0.00 0.00 82 1024.9
20240715011504 82 46 5.2 10.4 0.00 0.00 0.00 82 1025.2
20240715011003 82 85 1.7 10.4 0.00 0.00 0.00 81 1025.3
20240715010503 82 38 6.1 10.4 0.00 0.00 0.00 81 1025.2
20240715010003 82 67 5.2 11.3 0.00 0.00 0.00 82 1025.6
20240715005503 82 59 2.6 11.3 0.00 0.00 0.00 83 1025.6
20240715004447 82 70 3.5 10.4 0.00 0.00 0.00 83 1025.1
20240715003946 82 56 4.3 10.4 0.00 0.00 0.00 83 1025.0
20240715002931 82 67 5.2 13.9 0.00 0.00 0.00 82 1025.2
20240715002430 82 40 7.0 13.9 0.00 0.00 0.00 82 1025.0
20240715001930 82 54 5.2 13.0 0.00 0.00 0.00 82 1024.8
20240715001429 82 67 6.1 12.2 0.00 0.00 0.00 82 1024.8
20240715000929 82 43 5.2 12.2 0.00 0.00 0.00 82 1024.7
20240715000428 82 51 4.3 12.2 0.00 0.00 0.00 83 1024.6
20240714235928 82 56 4.3 12.2 0.00 0.00 0.00 82 1025.0
20240714235427 83 49 5.2 12.2 0.00 0.00 0.00 82 1024.7
20240714234927 83 49 6.1 13.0 0.00 0.00 0.00 82 1024.7
20240714234426 83 53 7.0 13.0 0.00 0.00 0.00 82 1024.6
20240714233926 83 40 6.1 13.0 0.00 0.00 0.00 82 1024.9
20240714232910 83 61 5.2 12.2 0.00 0.00 0.00 81 1024.6
20240714232409 83 81 5.2 12.2 0.00 0.00 0.00 82 1024.7
20240714231909 83 72 6.1 12.2 0.00 0.00 0.00 83 1024.6
20240714231408 83 78 4.3 12.2 0.00 0.00 0.00 83 1024.3
20240714230908 83 86 5.2 12.2 0.00 0.00 0.00 84 1024.3
20240714230407 83 48 3.5 10.4 0.00 0.00 0.00 84 1024.5
20240714225907 83 50 3.5 10.4 0.00 0.00 0.00 84 1024.3
20240714224851 83 15 6.1 12.2 0.00 0.00 0.00 85 1024.7
20240714224350 83 16 7.0 12.2 0.00 0.00 0.00 85 1023.9
20240714223850 83 9 7.0 12.2 0.00 0.00 0.00 85 1023.8
20240714223349 83 22 7.0 12.2 0.00 0.00 0.00 84 1024.0
20240714222328 83 14 6.1 11.3 0.00 0.00 0.00 84 1024.4
20240714221828 83 15 5.2 11.3 0.00 0.00 0.00 84 1024.4
20240714221328 83 5 7.0 11.3 0.00 0.00 0.00 84 1023.8
20240714220312 83 15 7.0 12.2 0.00 0.00 0.00 84 1023.7
20240714215812 83 12 7.0 12.2 0.00 0.00 0.00 84 1024.0
20240714215311 83 15 7.0 12.2 0.00 0.00 0.00 84 1023.5
20240714214811 83 12 7.8 12.2 0.00 0.00 0.00 83 1023.6
20240714213755 83 13 7.0 12.2 0.00 0.00 0.00 83 1023.7